Torna al catalogo

SCOUT G-1 R/B

AttivoPO
NORAD 14155·ROCKET BODY·🇺🇸 United States

Lanciato Jun 27, 1983 da Vandenberg Space Force Base

Loading…

Prossimi Passaggi (prossime 24 ore)

TLE

AggiornatoSource: Space-Track

Epoca: Sep 14, 2026, 18:33 UTC

1 14155U 83063B   26257.77346236  .00000486  00000-0  13703-3 0  9991
2 14155  82.0241  18.7742 0036106 187.9565 336.8349 14.43841575264326

Traccia SCOUT G-1 R/B in tempo reale con AllMySat

Download on the App Store